Time,TemperatureF,DewpointF,PressureIn,WindDirection,WindDirectionDegrees,WindSpeedMPH,WindSpeedGustMPH,Humidity,HourlyPrecipIn,Conditions,Clouds,dailyrainin,SoftwareType,DateUTC
2013-07-04 00:10:00,74.5,73.0,30.17,ESE,118,0.0,1.0,94,0.00,,,0.00,weatherlink.com 1.10,2013-07-04 04:10:00,
2013-07-04 00:25:00,74.4,73.0,30.17,SSW,201,1.0,4.0,94,0.00,,,0.00,weatherlink.com 1.10,2013-07-04 04:25:00,
2013-07-04 00:40:00,74.2,72.0,30.18,West,278,0.0,1.0,94,0.00,,,0.00,weatherlink.com 1.10,2013-07-04 04:40:00,
2013-07-04 00:55:00,73.9,72.0,30.17,ESE,120,0.0,2.0,95,0.00,,,0.00,weatherlink.com 1.10,2013-07-04 04:55:00,
2013-07-04 01:10:00,73.8,72.0,30.17,ESE,121,0.0,0.0,95,0.00,,,0.00,weatherlink.com 1.10,2013-07-04 05:10:00,
2013-07-04 01:25:00,73.5,72.0,30.17,SE,124,0.0,0.0,95,0.00,,,0.00,weatherlink.com 1.10,2013-07-04 05:25:00,
2013-07-04 01:40:00,73.3,72.0,30.17,ESE,119,0.0,1.0,96,0.00,,,0.00,weatherlink.com 1.10,2013-07-04 05:40:00,
2013-07-04 01:55:00,73.2,72.0,30.17,South,169,0.0,1.0,96,0.00,,,0.00,weatherlink.com 1.10,2013-07-04 05:55:00,
2013-07-04 02:10:00,73.1,72.0,30.17,SSE,167,0.0,0.0,96,0.00,,,0.00,weatherlink.com 1.10,2013-07-04 06:10:00,
2013-07-04 02:25:00,73.1,72.0,30.17,NE,56,1.0,1.0,97,0.00,,,0.00,weatherlink.com 1.10,2013-07-04 06:25:00,
2013-07-04 02:40:00,73.4,73.0,30.17,WNW,297,0.0,3.0,97,0.00,,,0.00,weatherlink.com 1.10,2013-07-04 06:40:00,
2013-07-04 02:55:00,73.4,73.0,30.16,SSE,162,0.0,0.0,97,0.00,,,0.00,weatherlink.com 1.10,2013-07-04 06:55:00,
2013-07-04 03:10:00,73.5,73.0,30.16,SSE,162,0.0,0.0,97,0.00,,,0.00,weatherlink.com 1.10,2013-07-04 07:10:00,
2013-07-04 03:25:00,73.5,73.0,30.16,SSE,162,0.0,1.0,97,0.00,,,0.00,weatherlink.com 1.10,2013-07-04 07:25:00,
2013-07-04 03:40:00,73.4,73.0,30.16,SSE,160,0.0,0.0,97,0.00,,,0.00,weatherlink.com 1.10,2013-07-04 07:40:00,
2013-07-04 03:55:00,73.1,72.0,30.16,SSE,160,0.0,0.0,97,0.00,,,0.00,weatherlink.com 1.10,2013-07-04 07:55:00,
2013-07-04 04:10:00,72.7,72.0,30.16,SSE,160,0.0,0.0,97,0.00,,,0.00,weatherlink.com 1.10,2013-07-04 08:10:00,
2013-07-04 04:25:00,72.7,72.0,30.17,SSE,160,0.0,1.0,97,0.00,,,0.00,weatherlink.com 1.10,2013-07-04 08:25:00,
2013-07-04 04:40:00,72.6,72.0,30.16,SSE,160,0.0,0.0,98,0.00,,,0.00,weatherlink.com 1.10,2013-07-04 08:40:00,
2013-07-04 04:55:00,72.5,72.0,30.17,SSE,160,0.0,1.0,98,0.00,,,0.00,weatherlink.com 1.10,2013-07-04 08:55:00,
2013-07-04 05:10:00,72.4,72.0,30.17,SSE,162,0.0,1.0,98,0.00,,,0.00,weatherlink.com 1.10,2013-07-04 09:10:00,
2013-07-04 05:25:00,72.5,72.0,30.18,West,277,0.0,1.0,98,0.00,,,0.00,weatherlink.com 1.10,2013-07-04 09:25:00,
2013-07-04 05:40:00,72.7,72.0,30.18,NNE,19,0.0,1.0,99,0.00,,,0.00,weatherlink.com 1.10,2013-07-04 09:40:00,
2013-07-04 05:55:00,73.1,73.0,30.18,ESE,116,1.0,1.0,99,0.00,,,0.00,weatherlink.com 1.10,2013-07-04 09:55:00,
2013-07-04 06:11:00,73.4,73.0,30.18,SE,146,0.0,0.0,99,0.00,,,0.00,weatherlink.com 1.10,2013-07-04 10:11:00,
2013-07-04 06:26:00,73.7,73.0,30.18,East,98,0.0,0.0,99,0.00,,,0.00,weatherlink.com 1.10,2013-07-04 10:26:00,
2013-07-04 06:41:00,74.0,74.0,30.18,East,98,0.0,0.0,99,0.00,,,0.00,weatherlink.com 1.10,2013-07-04 10:41:00,
2013-07-04 06:56:00,74.5,74.0,30.18,West,273,0.0,0.0,99,0.00,,,0.00,weatherlink.com 1.10,2013-07-04 10:56:00,
2013-07-04 07:11:00,75.1,75.0,30.19,East,91,0.0,0.0,98,0.00,,,0.00,weatherlink.com 1.10,2013-07-04 11:11:00,
2013-07-04 07:26:00,76.0,75.0,30.19,SSW,198,0.0,0.0,97,0.00,,,0.00,weatherlink.com 1.10,2013-07-04 11:26:00,
2013-07-04 07:41:00,77.3,76.0,30.19,WSW,256,0.0,3.0,94,0.00,,,0.00,weatherlink.com 1.10,2013-07-04 11:41:00,
2013-07-04 07:56:00,78.4,76.0,30.19,SW,235,0.0,2.0,91,0.00,,,0.00,weatherlink.com 1.10,2013-07-04 11:56:00,
2013-07-04 08:11:00,79.6,76.0,30.19,SSE,167,0.0,1.0,89,0.00,,,0.00,weatherlink.com 1.10,2013-07-04 12:11:00,
2013-07-04 08:26:00,81.4,78.0,30.19,ENE,65,0.0,0.0,88,0.00,,,0.00,weatherlink.com 1.10,2013-07-04 12:26:00,
2013-07-04 08:41:00,83.4,79.0,30.19,West,266,0.0,1.0,85,0.00,,,0.00,weatherlink.com 1.10,2013-07-04 12:41:00,
2013-07-04 08:56:00,84.7,79.0,30.19,East,92,0.0,3.0,82,0.00,,,0.00,weatherlink.com 1.10,2013-07-04 12:56:00,
2013-07-04 09:11:00,86.1,79.0,30.19,SSW,205,0.0,1.0,80,0.00,,,0.00,weatherlink.com 1.10,2013-07-04 13:11:00,
2013-07-04 09:27:00,87.2,79.0,30.19,SSE,150,0.0,3.0,76,0.00,,,0.00,weatherlink.com 1.10,2013-07-04 13:27:00,
2013-07-04 09:41:00,87.4,78.0,30.18,West,281,0.0,1.0,74,0.00,,,0.00,weatherlink.com 1.10,2013-07-04 13:41:00,
2013-07-04 09:56:00,88.5,79.0,30.18,East,83,0.0,3.0,74,0.00,,,0.00,weatherlink.com 1.10,2013-07-04 13:56:00,
2013-07-04 10:11:00,88.9,79.0,30.18,South,169,0.0,2.0,73,0.00,,,0.00,weatherlink.com 1.10,2013-07-04 14:11:00,
2013-07-04 10:26:00,88.8,78.0,30.18,WNW,284,1.0,2.0,70,0.00,,,0.00,weatherlink.com 1.10,2013-07-04 14:26:00,
2013-07-04 10:41:00,88.7,78.0,30.18,West,267,0.0,2.0,71,0.00,,,0.00,weatherlink.com 1.10,2013-07-04 14:41:00,
2013-07-04 10:56:00,89.3,79.0,30.17,South,188,1.0,3.0,71,0.00,,,0.00,weatherlink.com 1.10,2013-07-04 14:56:00,
2013-07-04 11:11:00,88.8,79.0,30.17,NW,316,0.0,1.0,73,0.00,,,0.00,weatherlink.com 1.10,2013-07-04 15:11:00,
2013-07-04 11:26:00,90.0,79.0,30.16,SW,222,0.0,3.0,69,0.00,,,0.00,weatherlink.com 1.10,2013-07-04 15:26:00,
2013-07-04 11:41:00,89.1,79.0,30.16,West,263,0.0,2.0,71,0.00,,,0.00,weatherlink.com 1.10,2013-07-04 15:41:00,
2013-07-04 11:56:00,89.7,79.0,30.16,West,278,0.0,1.0,71,0.00,,,0.00,weatherlink.com 1.10,2013-07-04 15:56:00,
2013-07-04 12:11:00,90.0,79.0,30.15,West,274,0.0,0.0,70,0.00,,,0.00,weatherlink.com 1.10,2013-07-04 16:11:00,
2013-07-04 12:26:00,89.9,78.0,30.15,NNW,327,1.0,2.0,67,0.00,,,0.00,weatherlink.com 1.10,2013-07-04 16:26:00,
2013-07-04 12:42:00,90.0,79.0,30.14,West,268,0.0,0.0,69,0.00,,,0.00,weatherlink.com 1.10,2013-07-04 16:42:00,
2013-07-04 12:57:00,90.5,79.0,30.14,SW,214,0.0,4.0,69,0.00,,,0.00,weatherlink.com 1.10,2013-07-04 16:57:00,
2013-07-04 13:12:00,90.4,78.0,30.14,East,81,1.0,4.0,68,0.00,,,0.00,weatherlink.com 1.10,2013-07-04 17:12:00,
2013-07-04 13:27:00,91.0,78.0,30.13,West,267,1.0,5.0,66,0.00,,,0.00,weatherlink.com 1.10,2013-07-04 17:27:00,
2013-07-04 13:42:00,91.2,78.0,30.13,South,174,0.0,5.0,66,0.00,,,0.00,weatherlink.com 1.10,2013-07-04 17:42:00,
2013-07-04 13:57:00,90.9,78.0,30.12,South,174,0.0,2.0,66,0.00,,,0.00,weatherlink.com 1.10,2013-07-04 17:57:00,
2013-07-04 14:12:00,90.3,78.0,30.12,SSW,198,1.0,4.0,68,0.00,,,0.00,weatherlink.com 1.10,2013-07-04 18:12:00,
2013-07-04 14:27:00,89.9,79.0,30.12,East,96,1.0,3.0,70,0.00,,,0.00,weatherlink.com 1.10,2013-07-04 18:27:00,
2013-07-04 14:42:00,90.5,79.0,30.11,ESE,113,1.0,6.0,68,0.00,,,0.00,weatherlink.com 1.10,2013-07-04 18:42:00,
2013-07-04 14:57:00,90.5,78.0,30.11,West,280,0.0,1.0,67,0.00,,,0.00,weatherlink.com 1.10,2013-07-04 18:57:00,
2013-07-04 15:12:00,89.5,78.0,30.11,West,281,1.0,6.0,69,0.00,,,0.00,weatherlink.com 1.10,2013-07-04 19:12:00,
2013-07-04 15:27:00,88.4,78.0,30.10,NNW,340,1.0,2.0,71,0.00,,,0.00,weatherlink.com 1.10,2013-07-04 19:27:00,
2013-07-04 15:42:00,88.1,78.0,30.10,NNW,333,1.0,2.0,73,0.00,,,0.00,weatherlink.com 1.10,2013-07-04 19:42:00,
2013-07-04 15:57:00,87.7,78.0,30.10,SW,222,1.0,2.0,73,0.00,,,0.00,weatherlink.com 1.10,2013-07-04 19:57:00,
2013-07-04 16:12:00,88.5,79.0,30.10,NW,324,1.0,3.0,74,0.00,,,0.00,weatherlink.com 1.10,2013-07-04 20:12:00,
2013-07-04 16:27:00,88.3,79.0,30.10,ESE,115,1.0,5.0,73,0.00,,,0.00,weatherlink.com 1.10,2013-07-04 20:27:00,
2013-07-04 16:42:00,88.0,79.0,30.10,West,281,0.0,2.0,74,0.00,,,0.00,weatherlink.com 1.10,2013-07-04 20:42:00,
2013-07-04 16:57:00,87.9,78.0,30.10,West,259,0.0,2.0,73,0.00,,,0.00,weatherlink.com 1.10,2013-07-04 20:57:00,
2013-07-04 17:12:00,87.4,79.0,30.09,SSE,165,0.0,1.0,76,0.00,,,0.00,weatherlink.com 1.10,2013-07-04 21:12:00,
2013-07-04 17:27:00,87.2,78.0,30.10,SW,231,0.0,3.0,74,0.00,,,0.00,weatherlink.com 1.10,2013-07-04 21:27:00,
2013-07-04 17:42:00,87.3,79.0,30.10,ESE,103,3.0,5.0,75,0.00,,,0.00,weatherlink.com 1.10,2013-07-04 21:42:00,
2013-07-04 17:57:00,86.7,78.0,30.09,SSE,152,0.0,4.0,74,0.00,,,0.00,weatherlink.com 1.10,2013-07-04 21:57:00,
2013-07-04 18:12:00,86.3,78.0,30.10,NE,44,2.0,5.0,75,0.00,,,0.00,weatherlink.com 1.10,2013-07-04 22:12:00,
2013-07-04 18:27:00,85.9,77.0,30.10,SSE,149,0.0,3.0,75,0.00,,,0.00,weatherlink.com 1.10,2013-07-04 22:27:00,
2013-07-04 18:42:00,86.3,77.0,30.10,ESE,109,0.0,3.0,74,0.00,,,0.00,weatherlink.com 1.10,2013-07-04 22:42:00,
2013-07-04 18:57:00,85.5,77.0,30.10,West,276,0.0,4.0,75,0.00,,,0.00,weatherlink.com 1.10,2013-07-04 22:57:00,
2013-07-04 19:12:00,85.1,77.0,30.10,ESE,107,0.0,3.0,76,0.00,,,0.00,weatherlink.com 1.10,2013-07-04 23:12:00,
2013-07-04 19:27:00,84.6,77.0,30.11,NNE,31,0.0,2.0,77,0.00,,,0.00,weatherlink.com 1.10,2013-07-04 23:27:00,
2013-07-04 19:42:00,84.1,77.0,30.11,SSW,194,0.0,3.0,80,0.00,,,0.00,weatherlink.com 1.10,2013-07-04 23:42:00,
2013-07-04 19:57:00,83.3,77.0,30.12,East,87,3.0,4.0,81,0.00,,,0.00,weatherlink.com 1.10,2013-07-04 23:57:00,
2013-07-04 20:12:00,82.5,77.0,30.12,NNE,29,0.0,1.0,83,0.00,,,0.00,weatherlink.com 1.10,2013-07-05 00:12:00,
2013-07-04 20:27:00,81.8,76.0,30.12,East,82,0.0,1.0,83,0.00,,,0.00,weatherlink.com 1.10,2013-07-05 00:27:00,
2013-07-04 20:42:00,81.2,76.0,30.13,SSW,210,0.0,2.0,84,0.00,,,0.00,weatherlink.com 1.10,2013-07-05 00:42:00,
2013-07-04 20:57:00,80.7,76.0,30.13,NE,49,0.0,1.0,85,0.00,,,0.00,weatherlink.com 1.10,2013-07-05 00:57:00,
2013-07-04 21:12:00,80.2,76.0,30.14,South,191,0.0,3.0,86,0.00,,,0.00,weatherlink.com 1.10,2013-07-05 01:12:00,
2013-07-04 21:27:00,79.7,76.0,30.14,NW,307,0.0,1.0,87,0.00,,,0.00,weatherlink.com 1.10,2013-07-05 01:27:00,
2013-07-04 21:42:00,79.0,75.0,30.14,NNW,336,0.0,1.0,88,0.00,,,0.00,weatherlink.com 1.10,2013-07-05 01:42:00,
2013-07-04 21:57:00,78.4,75.0,30.14,SSE,153,0.0,2.0,89,0.00,,,0.00,weatherlink.com 1.10,2013-07-05 01:57:00,
2013-07-04 22:12:00,78.2,75.0,30.14,East,89,0.0,5.0,89,0.00,,,0.00,weatherlink.com 1.10,2013-07-05 02:12:00,
2013-07-04 22:27:00,77.9,75.0,30.14,East,86,0.0,1.0,90,0.00,,,0.00,weatherlink.com 1.10,2013-07-05 02:27:00,
2013-07-04 22:42:00,77.4,74.0,30.14,ESE,121,0.0,2.0,90,0.00,,,0.00,weatherlink.com 1.10,2013-07-05 02:42:00,
2013-07-04 22:57:00,77.1,74.0,30.14,SSE,155,0.0,0.0,90,0.00,,,0.00,weatherlink.com 1.10,2013-07-05 02:57:00,
2013-07-04 23:12:00,76.7,74.0,30.13,East,87,2.0,2.0,91,0.00,,,0.00,weatherlink.com 1.10,2013-07-05 03:12:00,
2013-07-04 23:27:00,76.4,74.0,30.14,WSW,257,0.0,0.0,91,0.00,,,0.00,weatherlink.com 1.10,2013-07-05 03:27:00,
2013-07-04 23:42:00,76.2,74.0,30.13,ESE,103,0.0,1.0,91,0.00,,,0.00,weatherlink.com 1.10,2013-07-05 03:42:00,
2013-07-04 23:57:00,76.2,74.0,30.14,East,96,0.0,2.0,91,0.00,,,0.00,weatherlink.com 1.10,2013-07-05 03:57:00,